Contact Us:
Email: info@sawbill.com
Phone: (218)663-7150
Fax: (218)663-7980
Mail: 4620 Sawbill Trail
Box 2129
Tofte, MN 55615


Powered by
Movable Type 3.15
 
Sawbill Weather History Archives: December 2014
Current Sawbill Weather History | « November 2014 | January 2015 »


Date

High
Temperature

Low
Temperature

Barometric
Pressure

Relative
Humidity 7AM

9 AM
Temperature

Moisture

Snow

12/31/14 15 1 29.84 65% 10 .1" 1"
12/30/14 1 -10 29.96 62% 1 0
12/29/14 32 29 29.78 87% 29 .07" .5"
12/28/14 30 25 30.00 80% 26 Trace Trace
12/27/14 16 0 30.04 62% 0 Trace Trace
12/26/14 28 16 30.02 76% 16 0
12/25/14 30 25 29.98 87% 25 0
12/24/14 34 29 29.92 90% 29 0
12/23/14 33 31 29.86 90% 31 .14" 1.5"
12/22/14 33 32 29.92 95% 32 Trace Trace
12/21/14 32 28 29.90 98% 32 .18" 2"
12/20/14 28 27 30.00 98% 28 Trace Trace
12/19/14 25 21 30.12 92% 25 Trace Trace
12/18/14 21 3 30.16 83% 21 0
12/17/14 18 -5 30.22 63% 3 0
12/16/14 18 10 30.14 72% 11 .32" 3.5"
12/15/14 38 18 30.02 74% 18 .39" 4"
12/14/14 35 34 29.90 98% 35 .15"
12/13/14 35 33 30.00 79% 35 0
12/12/14 34 21 30.02 79% 32 Trace Trace
12/11/14 24 20 30.10 82% 22 0
12/10/14 24 18 30.14 84% 20 0
12/9/14 23 11 30.34 89% 23 Trace Trace
12/8/14 32 11 30.34 67% 11 .1" 1"
12/7/14 29 26 29.98 92% 29 .23" 2"
12/6/14 26 6 30.34 51% 26 0
12/5/14 29 5 30.41 64% 6 0
12/4/14 21 7 30.10 60% 13 0
12/3/14 14 -2 30.12 54% 7 0
12/2/14 16 0 29.92 75% 8 0
12/1/14 10 -9 30.02 63% 10 0
 


Home I Trip Planning I Rentals and Outfitting I Reservations I Campgrounds I Sawbill Store I Sawbill News I Contact

© 1997 - 2017, Sawbill Canoe Outfitters, Inc. I Privacy Policy